KLC334 LFPG-EGNT

Flight info

Callsign KLC334
Flight time 1h 4m
Altitude 36000
Route ATREX DCT VESAN DCT RATUK DCT SOVAT L613 MAMUL UY250 RIMTO
Aircraft E190/M-SDE3GILORVW/S

Departure

Time 2026-04-30 21:17
Airport Charles de Gaulle International Airport (LFPG)

Arrival

Time 2026-04-30 22:21
Airport Newcastle International Airport (EGNT)
Time Latitude Longitude Altitude Speed Heading
2026-04-30 20:48 49.01541 2.53935 361 ft 0 kts 298°
2026-04-30 21:05 49.01536 2.53949 360 ft 2 kts 298°
2026-04-30 21:06 49.01529 2.53971 356 ft 2 kts 298°
2026-04-30 21:06 49.01521 2.53992 358 ft 2 kts 294°
2026-04-30 21:06 49.01521 2.54016 360 ft 2 kts 218°
2026-04-30 21:06 49.01522 2.54018 360 ft 0 kts 214°
2026-04-30 21:08 49.01521 2.54017 360 ft 1 kts 211°
2026-04-30 21:08 49.01507 2.54007 361 ft 4 kts 207°
2026-04-30 21:09 49.01478 2.53994 355 ft 5 kts 193°
2026-04-30 21:09 49.01433 2.53988 352 ft 8 kts 178°
2026-04-30 21:09 49.01372 2.54019 356 ft 11 kts 151°
2026-04-30 21:09 49.01293 2.54088 351 ft 15 kts 162°
2026-04-30 21:10 49.01196 2.54057 358 ft 13 kts 232°
2026-04-30 21:10 49.01178 2.53932 353 ft 13 kts 267°
2026-04-30 21:10 49.01183 2.53796 357 ft 14 kts 289°
2026-04-30 21:10 49.01249 2.53686 356 ft 15 kts 326°
2026-04-30 21:11 49.01351 2.53624 357 ft 17 kts 345°
2026-04-30 21:11 49.01468 2.53602 353 ft 18 kts 359°
2026-04-30 21:11 49.01596 2.53599 353 ft 19 kts 355°
2026-04-30 21:11 49.01732 2.53582 353 ft 20 kts 355°
2026-04-30 21:12 49.01857 2.53528 353 ft 18 kts 306°
2026-04-30 21:12 49.01855 2.53335 354 ft 19 kts 264°
2026-04-30 21:12 49.01844 2.53129 356 ft 20 kts 266°
2026-04-30 21:12 49.01833 2.52909 353 ft 22 kts 264°
2026-04-30 21:13 49.01820 2.52672 356 ft 23 kts 266°
2026-04-30 21:13 49.01807 2.52419 353 ft 25 kts 265°
2026-04-30 21:13 49.01804 2.52165 361 ft 17 kts 292°
2026-04-30 21:13 49.01878 2.52124 353 ft 12 kts 353°
2026-04-30 21:14 49.01968 2.52112 355 ft 14 kts 355°
2026-04-30 21:14 49.02071 2.52112 352 ft 16 kts 18°
2026-04-30 21:14 49.02113 2.52242 352 ft 14 kts 85°
2026-04-30 21:14 49.02114 2.52262 352 ft 0 kts 86°
2026-04-30 21:16 49.02122 2.52411 354 ft 44 kts 85°
2026-04-30 21:16 49.02166 2.53230 357 ft 109 kts 85°
2026-04-30 21:16 49.02245 2.54650 466 ft 153 kts 84°
2026-04-30 21:16 49.02338 2.56417 935 ft 182 kts 86°
2026-04-30 21:17 49.02489 2.58517 1525 ft 214 kts 86°
2026-04-30 21:17 49.02621 2.60805 2570 ft 215 kts 90°
2026-04-30 21:17 49.02716 2.63082 3641 ft 219 kts 90°
2026-04-30 21:17 49.02823 2.65522 4209 ft 241 kts 89°
2026-04-30 21:18 49.02954 2.68163 4848 ft 258 kts 86°
2026-04-30 21:18 49.03101 2.70952 5530 ft 269 kts 86°
2026-04-30 21:18 49.03503 2.73787 6260 ft 278 kts 63°
2026-04-30 21:18 49.04770 2.75961 7054 ft 280 kts 31°
2026-04-30 21:19 49.06616 2.76930 7889 ft 286 kts
2026-04-30 21:19 49.08594 2.76658 8693 ft 287 kts 346°
2026-04-30 21:19 49.10528 2.75759 9414 ft 294 kts 342°
2026-04-30 21:19 49.12476 2.74738 10190 ft 296 kts 342°
2026-04-30 21:20 49.14496 2.73713 10560 ft 314 kts 342°
2026-04-30 21:20 49.16638 2.72630 10878 ft 333 kts 343°
2026-04-30 21:20 49.18881 2.71461 11244 ft 349 kts 342°
2026-04-30 21:20 49.21205 2.70220 11764 ft 357 kts 342°
2026-04-30 21:21 49.23563 2.68962 12405 ft 361 kts 342°
2026-04-30 21:21 49.25951 2.67699 13116 ft 364 kts 342°
2026-04-30 21:21 49.30774 2.65149 14411 ft 372 kts 343°
2026-04-30 21:22 49.33231 2.63859 15036 ft 375 kts 342°
2026-04-30 21:22 49.40740 2.59758 16777 ft 385 kts 342°
2026-04-30 21:23 49.43264 2.58343 17404 ft 387 kts 342°
2026-04-30 21:23 49.45804 2.56904 17972 ft 390 kts 341°
2026-04-30 21:23 49.50907 2.53951 19029 ft 398 kts 341°
2026-04-30 21:24 49.53508 2.52416 19539 ft 402 kts 341°
2026-04-30 21:24 49.56131 2.50847 20065 ft 406 kts 340°
2026-04-30 21:24 49.58783 2.49244 20611 ft 410 kts 340°
2026-04-30 21:24 49.61448 2.47612 21100 ft 414 kts 340°
2026-04-30 21:25 49.66844 2.44244 22032 ft 421 kts 340°
2026-04-30 21:25 49.69539 2.42536 22457 ft 425 kts 339°
2026-04-30 21:25 49.72283 2.40781 22859 ft 428 kts 339°
2026-04-30 21:26 49.77825 2.37197 23671 ft 435 kts 339°
2026-04-30 21:26 49.80606 2.35431 24361 ft 426 kts 341°
2026-04-30 21:27 49.86086 2.32346 25690 ft 417 kts 342°
2026-04-30 21:27 49.88822 2.30803 26108 ft 419 kts 342°
2026-04-30 21:27 49.91537 2.29258 26482 ft 422 kts 341°
2026-04-30 21:28 49.97090 2.26079 27179 ft 428 kts 341°
2026-04-30 21:28 49.99893 2.24469 27535 ft 430 kts 341°
2026-04-30 21:28 50.05533 2.21217 28228 ft 434 kts 341°
2026-04-30 21:29 50.08370 2.19579 28576 ft 436 kts 341°
2026-04-30 21:29 50.16960 2.14607 29717 ft 439 kts 341°
2026-04-30 21:30 50.22685 2.11283 30375 ft 443 kts 341°
2026-04-30 21:31 50.31425 2.06193 31163 ft 448 kts 341°
2026-04-30 21:31 50.37249 2.02513 31508 ft 454 kts 329°
2026-04-30 21:32 50.42127 1.96233 31948 ft 456 kts 318°
2026-04-30 21:32 50.44478 1.92960 32117 ft 458 kts 318°
2026-04-30 21:32 50.46866 1.89640 32373 ft 458 kts 318°
2026-04-30 21:32 50.49263 1.86324 32652 ft 457 kts 318°
2026-04-30 21:33 50.51654 1.83019 32918 ft 457 kts 318°
2026-04-30 21:33 50.56418 1.76424 33510 ft 455 kts 318°
2026-04-30 21:33 50.58793 1.73131 33834 ft 454 kts 318°
2026-04-30 21:34 50.61168 1.69831 34149 ft 453 kts 318°
2026-04-30 21:34 50.65855 1.63302 34655 ft 451 kts 318°
2026-04-30 21:34 50.68215 1.60042 34895 ft 450 kts 319°
2026-04-30 21:35 50.70578 1.56800 35127 ft 449 kts 319°
2026-04-30 21:35 50.72933 1.53563 35350 ft 449 kts 318°
2026-04-30 21:35 50.75254 1.50364 35575 ft 448 kts 318°
2026-04-30 21:35 50.77602 1.47126 35774 ft 447 kts 318°
2026-04-30 21:36 50.79942 1.43882 35994 ft 447 kts 318°
2026-04-30 21:36 50.82269 1.40641 36308 ft 443 kts 318°
2026-04-30 21:37 50.89319 1.30793 36312 ft 457 kts 318°
2026-04-30 21:37 50.91713 1.27440 36318 ft 461 kts 318°
2026-04-30 21:37 50.96517 1.20697 36211 ft 465 kts 317°
2026-04-30 21:38 51.01368 1.13870 36215 ft 466 kts 317°
2026-04-30 21:38 51.06235 1.07046 36210 ft 467 kts 321°
2026-04-30 21:39 51.11544 1.01056 36211 ft 467 kts 325°
2026-04-30 21:39 51.16897 0.95182 36215 ft 467 kts 325°
2026-04-30 21:40 51.22205 0.89322 36206 ft 466 kts 324°
2026-04-30 21:40 51.27545 0.83404 36205 ft 466 kts 324°
2026-04-30 21:41 51.32871 0.77481 36220 ft 466 kts 324°
2026-04-30 21:41 51.38210 0.71526 36216 ft 468 kts 324°
2026-04-30 21:42 51.43544 0.65561 36215 ft 468 kts 324°
2026-04-30 21:42 51.48885 0.59569 36213 ft 468 kts 324°
2026-04-30 21:43 51.53319 0.54582 36213 ft 468 kts 324°
2026-04-30 21:43 51.59523 0.47583 36229 ft 468 kts 324°
2026-04-30 21:44 51.64848 0.41556 36213 ft 467 kts 324°
2026-04-30 21:44 51.70139 0.35551 36233 ft 467 kts 324°
2026-04-30 21:45 51.75452 0.29503 36237 ft 467 kts 324°
2026-04-30 21:45 51.80763 0.23440 36239 ft 467 kts 323°
2026-04-30 21:46 51.86069 0.17364 36240 ft 467 kts 323°
2026-04-30 21:46 51.91374 0.11273 36240 ft 467 kts 323°
2026-04-30 21:47 51.96680 0.05162 36238 ft 467 kts 323°
2026-04-30 21:47 52.01945 -0.00919 36224 ft 467 kts 324°
2026-04-30 21:48 52.07591 -0.06221 36234 ft 469 kts 331°
2026-04-30 21:48 52.13338 -0.11241 36230 ft 469 kts 331°
2026-04-30 21:49 52.19056 -0.16294 36227 ft 469 kts 330°
2026-04-30 21:49 52.24758 -0.21365 36226 ft 469 kts 330°
2026-04-30 21:50 52.30503 -0.26492 36233 ft 469 kts 330°
2026-04-30 21:50 52.36243 -0.31599 36235 ft 470 kts 330°
2026-04-30 21:51 52.41959 -0.36683 36237 ft 470 kts 330°
2026-04-30 21:51 52.47708 -0.41815 36238 ft 470 kts 330°
2026-04-30 21:52 52.53463 -0.46970 36241 ft 470 kts 330°
2026-04-30 21:52 52.58235 -0.51255 36240 ft 470 kts 330°
2026-04-30 21:53 52.64904 -0.57263 36240 ft 470 kts 330°
2026-04-30 21:53 52.69678 -0.61576 36238 ft 470 kts 330°
2026-04-30 21:54 52.75413 -0.66773 36243 ft 470 kts 330°
2026-04-30 21:54 52.81157 -0.71992 36243 ft 471 kts 330°
2026-04-30 21:55 52.86899 -0.77227 36242 ft 471 kts 330°
2026-04-30 21:55 52.92629 -0.82466 36242 ft 470 kts 330°
2026-04-30 21:56 52.98360 -0.87722 36243 ft 471 kts 330°
2026-04-30 21:56 53.04067 -0.92972 36247 ft 472 kts 330°
2026-04-30 21:57 53.09819 -0.98269 36250 ft 472 kts 329°
2026-04-30 21:57 53.15562 -1.03574 36231 ft 473 kts 329°
2026-04-30 21:58 53.21312 -1.08901 36262 ft 473 kts 329°
2026-04-30 21:58 53.27021 -1.14208 36258 ft 472 kts 329°
2026-04-30 21:59 53.32765 -1.19564 36260 ft 472 kts 329°
2026-04-30 22:00 53.41441 -1.27392 36272 ft 473 kts 339°
2026-04-30 22:00 53.47911 -1.28950 36301 ft 475 kts 357°
2026-04-30 22:00 53.51221 -1.29258 36013 ft 475 kts 356°
2026-04-30 22:01 53.54494 -1.29601 35714 ft 465 kts 356°
2026-04-30 22:01 53.57719 -1.29996 35073 ft 466 kts 351°
2026-04-30 22:01 53.60793 -1.31637 34522 ft 463 kts 331°
2026-04-30 22:01 53.63611 -1.34316 33843 ft 465 kts 329°
2026-04-30 22:02 53.66441 -1.36992 33267 ft 464 kts 326°
2026-04-30 22:02 53.69101 -1.39966 32619 ft 466 kts 324°
2026-04-30 22:02 53.71803 -1.43010 32019 ft 467 kts 325°
2026-04-30 22:02 53.74546 -1.45978 31382 ft 469 kts 326°
2026-04-30 22:03 53.77331 -1.48902 30765 ft 471 kts 327°
2026-04-30 22:03 53.80122 -1.51790 30107 ft 470 kts 327°
2026-04-30 22:03 53.82905 -1.54652 29532 ft 464 kts 327°
2026-04-30 22:03 53.85666 -1.57484 28902 ft 461 kts 327°
2026-04-30 22:04 53.88400 -1.60290 28281 ft 457 kts 327°
2026-04-30 22:04 53.91108 -1.63072 27679 ft 453 kts 327°
2026-04-30 22:04 53.96425 -1.68545 26497 ft 446 kts 327°
2026-04-30 22:05 53.99069 -1.71272 25907 ft 442 kts 327°
2026-04-30 22:05 54.01689 -1.73979 25251 ft 439 kts 327°
2026-04-30 22:05 54.04293 -1.76675 24449 ft 438 kts 327°
2026-04-30 22:05 54.06892 -1.79367 23498 ft 438 kts 327°
2026-04-30 22:06 54.09491 -1.82062 22624 ft 434 kts 327°
2026-04-30 22:06 54.14836 -1.86426 21146 ft 422 kts 352°
2026-04-30 22:06 54.17706 -1.86295 20686 ft 407 kts 13°
2026-04-30 22:07 54.20421 -1.85153 20142 ft 397 kts 17°
2026-04-30 22:07 54.23040 -1.84044 19638 ft 391 kts 15°
2026-04-30 22:07 54.25692 -1.83101 19116 ft 388 kts 13°
2026-04-30 22:07 54.28335 -1.82254 18612 ft 385 kts 12°
2026-04-30 22:08 54.30969 -1.81422 18077 ft 383 kts 12°
2026-04-30 22:08 54.33586 -1.80600 17578 ft 381 kts 12°
2026-04-30 22:08 54.36199 -1.79776 17075 ft 380 kts 12°
2026-04-30 22:08 54.38767 -1.78968 16574 ft 379 kts 12°
2026-04-30 22:09 54.41378 -1.78145 15900 ft 381 kts 12°
2026-04-30 22:09 54.43978 -1.77322 15214 ft 379 kts 12°
2026-04-30 22:09 54.46582 -1.76497 14399 ft 381 kts 12°
2026-04-30 22:09 54.49205 -1.75663 13531 ft 382 kts 12°
2026-04-30 22:10 54.51803 -1.74839 12791 ft 378 kts 12°
2026-04-30 22:10 54.54374 -1.74023 12167 ft 372 kts 12°
2026-04-30 22:10 54.56896 -1.73220 11554 ft 366 kts 12°
2026-04-30 22:10 54.59371 -1.72434 11096 ft 357 kts 12°
2026-04-30 22:11 54.64119 -1.70917 10173 ft 342 kts 12°
2026-04-30 22:11 54.66444 -1.70175 9703 ft 335 kts 12°
2026-04-30 22:11 54.68713 -1.69451 9236 ft 327 kts 11°
2026-04-30 22:12 54.70928 -1.69531 8758 ft 311 kts 346°
2026-04-30 22:12 54.72839 -1.70991 8308 ft 293 kts 327°
2026-04-30 22:12 54.74527 -1.72836 7783 ft 283 kts 325°
2026-04-30 22:12 54.76178 -1.74571 7339 ft 273 kts 327°
2026-04-30 22:13 54.77803 -1.76165 6905 ft 265 kts 329°
2026-04-30 22:13 54.79402 -1.77676 6396 ft 260 kts 329°
2026-04-30 22:13 54.81028 -1.79178 5728 ft 264 kts 330°
2026-04-30 22:13 54.82632 -1.80634 5320 ft 256 kts 330°
2026-04-30 22:14 54.84184 -1.82056 4926 ft 250 kts 330°
2026-04-30 22:14 54.85694 -1.83431 4570 ft 236 kts 330°
2026-04-30 22:14 54.87101 -1.84712 4179 ft 223 kts 330°
2026-04-30 22:14 54.88445 -1.85932 3824 ft 212 kts 330°
2026-04-30 22:15 54.89733 -1.87100 3468 ft 207 kts 330°
2026-04-30 22:15 54.90957 -1.88200 3256 ft 184 kts 330°
2026-04-30 22:15 54.92021 -1.89171 2970 ft 169 kts 330°
2026-04-30 22:15 54.93033 -1.90098 2655 ft 161 kts 330°
2026-04-30 22:16 54.93996 -1.90976 2460 ft 154 kts 329°
2026-04-30 22:16 54.94942 -1.91831 2362 ft 154 kts 332°
2026-04-30 22:17 54.97910 -1.91333 2146 ft 144 kts 55°
2026-04-30 22:17 54.98455 -1.89967 2171 ft 133 kts 78°
2026-04-30 22:17 54.99013 -1.86989 2218 ft 130 kts 82°
2026-04-30 22:18 54.99403 -1.85538 2190 ft 131 kts 75°
2026-04-30 22:18 55.00197 -1.82508 1812 ft 134 kts 75°
2026-04-30 22:19 55.00964 -1.79631 1453 ft 129 kts 73°
2026-04-30 22:19 55.01341 -1.78213 1283 ft 128 kts 72°
2026-04-30 22:19 55.02084 -1.75435 931 ft 125 kts 67°
2026-04-30 22:20 55.02447 -1.74062 750 ft 124 kts 68°
2026-04-30 22:20 55.03176 -1.71311 401 ft 126 kts 65°
2026-04-30 22:20 55.03539 -1.69941 262 ft 119 kts 65°
2026-04-30 22:21 55.03825 -1.68867 250 ft 74 kts 65°
2026-04-30 22:21 55.03977 -1.68373 247 ft 26 kts 41°
2026-04-30 22:21 55.04100 -1.68232 246 ft 15 kts 21°
2026-04-30 22:21 55.04146 -1.68330 247 ft 14 kts 247°
2026-04-30 22:22 55.04104 -1.68485 247 ft 15 kts 245°
2026-04-30 22:22 55.04058 -1.68661 248 ft 17 kts 245°
2026-04-30 22:22 55.04006 -1.68852 249 ft 18 kts 245°
2026-04-30 22:22 55.03951 -1.69055 251 ft 19 kts 245°
2026-04-30 22:23 55.03895 -1.69271 253 ft 20 kts 247°
2026-04-30 22:23 55.03837 -1.69493 255 ft 20 kts 246°
2026-04-30 22:23 55.03795 -1.69734 257 ft 21 kts 257°
2026-04-30 22:23 55.03774 -1.69990 259 ft 22 kts 266°
2026-04-30 22:24 55.03776 -1.70226 262 ft 14 kts 273°
2026-04-30 22:24 55.03786 -1.70388 266 ft 13 kts 285°
2026-04-30 22:24 55.03799 -1.70515 266 ft 11 kts 276°
2026-04-30 22:24 55.03803 -1.70642 266 ft 6 kts 260°
2026-04-30 22:25 55.03774 -1.70664 266 ft 5 kts 183°
2026-04-30 22:25 55.03734 -1.70670 266 ft 2 kts 184°
2026-04-30 22:25 55.03732 -1.70670 266 ft 0 kts 184°